User: anonymous   Login
Location: Unspecified
(0.0000°N, 0.0000°E)
Time: 11:03:31
(UTC+00:00)
Language:

TATIANA - Orbit

View from above orbital plane
View from above orbital plane
View from above satellite
View from above satellite

Ground track
Ground track

The orbit data is extracted from the following two-line orbital elements,

1 28523U 05002C   17348.15003735  .00000056  00000-0  34349-4 0  9992
2 28523  82.9507 234.5665 0037513 192.9431 167.0773 13.87445226653098
Epoch (UTC): 14 December 2017 03:36:03
Eccentricity: 0.0037513
inclination: 82.9507°
perigee height: 910 km
apogee height: 965 km
right ascension of ascending node: 234.5665°
argument of perigee: 192.9431°
revolutions per day: 13.87445226
mean anomaly at epoch: 167.0773°
orbit number at epoch: 65309

The dashed part of the orbit path shows where the satellite is in the earth's shadow,  

DLR